| time (UTC) | temp F | wind direction | speed MPH | gust MPH | rain 1hr in | rain 24hr in | rain mn in | humidity % | barometer mb |
| 20260504044509 | 50 | 277 | 2.0 | 8.0 | 0.00 | 0.00 | 0.00 | 48 | 1010.8 |
| 20260504043101 | 47 | 269 | 1.0 | 4.0 | 0.00 | 0.00 | 0.00 | 54 | 1010.7 |
| 20260504041546 | 46 | 330 | 0.0 | 1.0 | 0.00 | 0.00 | 0.00 | 60 | 1010.5 |
| 20260504040027 | 45 | 329 | 0.0 | 0.0 | 0.00 | 0.00 | 0.00 | 60 | 1010.5 |
| 20260504034529 | 45 | 329 | 0.0 | 0.0 | 0.00 | 0.00 | 0.00 | 62 | 1010.4 |
| 20260504033108 | 45 | 330 | 0.0 | 0.0 | 0.00 | 0.00 | 0.00 | 62 | 1010.5 |
| 20260504031535 | 45 | 330 | 0.0 | 0.0 | 0.00 | 0.00 | 0.00 | 60 | 1010.4 |
| 20260504030012 | 46 | 329 | 0.0 | 1.0 | 0.00 | 0.00 | 0.00 | 59 | 1010.5 |
| 20260504024601 | 47 | 329 | 0.0 | 0.0 | 0.00 | 0.00 | 0.00 | 57 | 1010.4 |
| 20260504024516 | 47 | 329 | 0.0 | 0.0 | 0.00 | 0.00 | 0.00 | 57 | 1010.4 |
| 20260504023044 | 47 | 329 | 0.0 | 0.0 | 0.00 | 0.00 | 0.00 | 55 | 1010.4 |
| 20260504021527 | 48 | 329 | 0.0 | 0.0 | 0.00 | 0.00 | 0.00 | 54 | 1010.4 |
| 20260504020058 | 49 | 329 | 0.0 | 0.0 | 0.00 | 0.00 | 0.00 | 51 | 1010.5 |
| 20260504014540 | 50 | 329 | 0.0 | 0.0 | 0.00 | 0.00 | 0.00 | 49 | 1010.3 |
| 20260504013020 | 51 | 329 | 0.0 | 1.0 | 0.00 | 0.00 | 0.00 | 46 | 1010.1 |
| 20260504011514 | 53 | 329 | 0.0 | 0.0 | 0.00 | 0.00 | 0.00 | 42 | 1010.1 |
| 20260504010055 | 55 | 329 | 0.0 | 0.0 | 0.00 | 0.00 | 0.00 | 38 | 1009.9 |
| 20260504004542 | 55 | 329 | 0.0 | 0.0 | 0.00 | 0.00 | 0.00 | 35 | 1009.6 |
| 20260504003022 | 56 | 329 | 0.0 | 1.0 | 0.00 | 0.00 | 0.00 | 34 | 1009.5 |
| 20260504001510 | 57 | 330 | 0.0 | 2.0 | 0.00 | 0.00 | 0.00 | 33 | 1009.2 |
| 20260504000050 | 57 | 318 | 0.0 | 3.0 | 0.00 | 0.00 | 0.00 | 32 | 1009.1 |
| 20260503234537 | 58 | 313 | 0.0 | 4.0 | 0.00 | 0.00 | 0.00 | 31 | 1008.9 |
| 20260503233013 | 58 | 334 | 2.0 | 9.0 | 0.00 | 0.00 | 0.00 | 30 | 1008.7 |
| 20260503231557 | 59 | 291 | 0.0 | 5.0 | 0.00 | 0.00 | 0.00 | 30 | 1008.6 |
| 20260503230013 | 59 | 273 | 6.0 | 15.0 | 0.00 | 0.00 | 0.00 | 29 | 1008.5 |
| 20260503224534 | 60 | 305 | 3.0 | 11.0 | 0.00 | 0.00 | 0.00 | 28 | 1008.4 |
| 20260503223004 | 60 | 20 | 4.0 | 11.0 | 0.00 | 0.00 | 0.00 | 28 | 1008.4 |
| 20260503221550 | 60 | 305 | 4.0 | 10.0 | 0.00 | 0.00 | 0.00 | 28 | 1008.4 |
| 20260503220016 | 60 | 355 | 6.0 | 12.0 | 0.00 | 0.00 | 0.00 | 27 | 1008.4 |
| 20260503214543 | 60 | 13 | 2.0 | 11.0 | 0.00 | 0.00 | 0.00 | 27 | 1008.5 |
| 20260503213029 | 60 | 311 | 4.0 | 14.0 | 0.00 | 0.00 | 0.00 | 28 | 1008.4 |
| 20260503211507 | 59 | 327 | 4.0 | 13.0 | 0.00 | 0.00 | 0.00 | 27 | 1008.3 |
| 20260503210041 | 59 | 340 | 5.0 | 15.0 | 0.00 | 0.00 | 0.00 | 28 | 1008.2 |
| 20260503204559 | 60 | 276 | 6.0 | 12.0 | 0.00 | 0.00 | 0.00 | 28 | 1008.3 |
| 20260503203015 | 59 | 279 | 6.0 | 18.0 | 0.00 | 0.00 | 0.00 | 29 | 1008.4 |
| 20260503201559 | 58 | 24 | 5.0 | 14.0 | 0.00 | 0.00 | 0.00 | 29 | 1008.4 |
| 20260503200021 | 59 | 360 | 9.0 | 17.0 | 0.00 | 0.00 | 0.00 | 29 | 1008.5 |
| 20260503194548 | 59 | 289 | 5.0 | 16.0 | 0.00 | 0.00 | 0.00 | 29 | 1008.6 |
| 20260503193034 | 57 | 306 | 6.0 | 12.0 | 0.00 | 0.00 | 0.00 | 31 | 1008.7 |
| 20260503191545 | 58 | 345 | 6.0 | 13.0 | 0.00 | 0.00 | 0.00 | 31 | 1008.9 |
| 20260503190050 | 57 | 343 | 5.0 | 12.0 | 0.00 | 0.00 | 0.00 | 32 | 1009.0 |
| 20260503184505 | 56 | 23 | 3.0 | 12.0 | 0.00 | 0.00 | 0.00 | 34 | 1009.0 |
| 20260503183040 | 55 | 326 | 4.0 | 14.0 | 0.00 | 0.00 | 0.00 | 34 | 1009.3 |
| 20260503181514 | 55 | 266 | 5.0 | 17.0 | 0.00 | 0.00 | 0.00 | 35 | 1009.2 |
| 20260503180047 | 54 | 329 | 3.0 | 16.0 | 0.00 | 0.00 | 0.00 | 35 | 1009.4 |
| 20260503174528 | 54 | 315 | 3.0 | 11.0 | 0.00 | 0.00 | 0.00 | 35 | 1009.5 |
| 20260503173050 | 54 | 344 | 5.0 | 18.0 | 0.00 | 0.00 | 0.00 | 36 | 1009.6 |
| 20260503171536 | 54 | 292 | 3.0 | 15.0 | 0.00 | 0.00 | 0.00 | 35 | 1009.6 |
| 20260503140109 | 50 | 355 | 9.0 | 17.0 | 0.00 | 0.00 | 0.00 | 43 | 1010.0 |
| 20260503081605 | 45 | 44 | 0.0 | 5.0 | 0.00 | 0.02 | 0.00 | 53 | 1008.7 |
| 20260503071531 | 46 | 26 | 2.0 | 7.0 | 0.00 | 0.02 | 0.00 | 51 | 1008.6 |
| 20260503054531 | 49 | 36 | 2.0 | 9.0 | 0.00 | 0.02 | 0.00 | 47 | 1009.0 |
| 20260503053056 | 49 | 31 | 3.0 | 11.0 | 0.00 | 0.02 | 0.00 | 46 | 1009.2 |
| 20260503053001 | 49 | 53 | 3.0 | 11.0 | 0.00 | 0.02 | 0.00 | 45 | 1009.2 |
| 20260503051546 | 49 | 360 | 3.0 | 10.0 | 0.00 | 0.02 | 0.00 | 45 | 1009.2 |
| 20260503050032 | 50 | 30 | 4.0 | 10.0 | 0.00 | 0.02 | 0.00 | 45 | 1009.4 |